Weather History for Truckee-Tahoe, CA

Change the Weather History Date:

Friday, April 12, 2013

  Actual Average Record
Temperature  
Mean Temperature 44 °F -  
Max Temperature 64 °F 52 °F 72 °F (1988)
Min Temperature 23 °F 25 °F 11 °F (1950)
Degree Days  
Heating Degree Days 22    
Moisture  
Dew Point 27 °F    
Average Humidity 67    
Maximum Humidity 100    
Minimum Humidity 19    
Precipitation  
Precipitation 0.00 in - - ()
Sea Level Pressure  
Sea Level Pressure 30.02 in    
Wind  
Wind Speed 3 mph (SW)    
Max Wind Speed 17 mph    
Max Gust Speed 21 mph    
Visibility 10 miles    
Events      
Averages and records for this station are not official NWS values.
T = Trace of Precipitation, MM = Missing Value Source: NWS Daily Summary

Daily Weather History Graph

Daily Weather History Graph

Search for Another Location

Airport:

Trip Planner

Search our weather history database for the weather conditions in past years. The results will help you decide how hot, cold, wet, or windy it might be!

Date:

Astronomy

Apr. 12, 2013 Rise Set
Actual Time 6:27 AM PDT 7:35 PM PDT
Civil Twilight 5:59 AM PDT 8:03 PM PDT
Nautical Twilight 5:27 AM PDT 8:36 PM PDT
Astronomical Twilight 4:52 AM PDT 9:10 PM PDT
Moon 7:41 AM PDT (4/12) 10:10 PM PDT (4/12)
Length of Visible Light 14h 03m
Length of Day
13h 08m
Waxing Crescent, 6% of the Moon is Illuminated
Apr 12
Waxing Crescent
Apr 18
First Quarter
Apr 25
Full
May 2
Last Quarter
May 9
New

Hourly Weather History & Observations

Time (PDT) Temp. Windchill Dew Point Humidity Pressure Visibility Wind Dir Wind Speed Gust Speed Precip Events Conditions
12:15 AM 32.0 °F - 24.8 °F 75% 30.03 in 10.0 mi Calm Calm - N/A   Clear
12:35 AM 32.0 °F 24.8 °F 24.8 °F 75% 30.04 in 10.0 mi North 8.1 mph - N/A   Clear
12:55 AM 28.4 °F 22.2 °F 24.8 °F 86% 30.04 in 10.0 mi South 5.8 mph - N/A   Clear
1:15 AM 28.4 °F 23.3 °F 24.8 °F 86% 30.04 in 10.0 mi SW 4.6 mph - N/A   Clear
1:35 AM 28.4 °F - 24.8 °F 86% 30.04 in 10.0 mi Calm Calm - N/A   Clear
1:55 AM 28.4 °F - 24.8 °F 86% 30.04 in 10.0 mi Calm Calm - N/A   Clear
2:15 AM 28.4 °F 24.6 °F 24.8 °F 86% 30.04 in 10.0 mi SW 3.5 mph - N/A   Clear
2:35 AM 26.6 °F 22.6 °F 24.8 °F 93% 30.03 in 10.0 mi SSW 3.5 mph - N/A   Clear
2:55 AM 28.4 °F - 24.8 °F 86% 30.03 in 10.0 mi Calm Calm - N/A   Clear
3:15 AM 28.4 °F - 24.8 °F 86% 30.03 in 10.0 mi Calm Calm - N/A   Clear
3:35 AM 26.6 °F 22.6 °F 23.0 °F 86% 30.03 in 10.0 mi ESE 3.5 mph - N/A   Clear
3:55 AM 24.8 °F - 23.0 °F 93% 30.03 in 10.0 mi Calm Calm - N/A   Clear
4:15 AM 24.8 °F - 24.8 °F 100% 30.03 in 10.0 mi Calm Calm - N/A   Clear
4:35 AM 24.8 °F - 23.0 °F 93% 30.03 in 10.0 mi Calm Calm - N/A   Clear
4:55 AM 24.8 °F - 24.8 °F 100% 30.03 in 10.0 mi Calm Calm - N/A   Clear
5:15 AM 24.8 °F - 23.0 °F 93% 30.03 in 10.0 mi Calm Calm - N/A   Clear
5:35 AM 24.8 °F - 24.8 °F 100% 30.03 in 10.0 mi Calm Calm - N/A   Clear
5:55 AM 26.6 °F - 24.8 °F 93% 30.04 in 10.0 mi Calm Calm - N/A   Clear
6:15 AM 23.0 °F - 21.2 °F 93% 30.05 in 10.0 mi Calm Calm - N/A   Clear
6:35 AM 23.0 °F - 23.0 °F 100% 30.06 in 10.0 mi Calm Calm - N/A   Clear
8:45 AM 35.6 °F - 26.6 °F 70% 30.08 in 10.0 mi Calm Calm - N/A   Clear
9:50 AM 42.8 °F - 26.6 °F 53% 30.06 in 10.0 mi Calm Calm - N/A   Clear
10:50 AM 50.0 °F - 24.8 °F 37% 30.05 in 10.0 mi Calm Calm - N/A   Clear
11:45 AM 55.4 °F - 23.0 °F 29% 30.04 in 10.0 mi Calm Calm - N/A   Clear
12:50 PM 59.0 °F - 23.0 °F 25% 30.01 in 10.0 mi South 4.6 mph - N/A   Clear
1:50 PM 60.8 °F - 17.6 °F 19% 29.99 in 10.0 mi Calm Calm - N/A   Scattered Clouds
3:45 PM 64.4 °F - 24.8 °F 22% 29.96 in 10.0 mi WSW 11.5 mph 17.3 mph N/A   Scattered Clouds
4:50 PM 62.6 °F - 26.6 °F 26% 29.96 in 10.0 mi West 11.5 mph 20.7 mph N/A   Scattered Clouds
5:50 PM 59.0 °F - 32.0 °F 36% 29.97 in 10.0 mi WSW 17.3 mph 20.7 mph N/A   Scattered Clouds
5:55 PM 59.0 °F - 32.0 °F 36% 29.97 in 10.0 mi West 15.0 mph 20.7 mph N/A   Clear
6:15 PM 57.2 °F - 32.0 °F 38% 29.97 in 10.0 mi West 13.8 mph 19.6 mph N/A   Clear
6:35 PM 57.2 °F - 32.0 °F 38% 29.97 in 10.0 mi West 12.7 mph 20.7 mph N/A   Clear
6:55 PM 55.4 °F - 32.0 °F 41% 29.97 in 10.0 mi WSW 8.1 mph - N/A   Clear
7:15 PM 53.6 °F - 32.0 °F 44% 29.97 in 10.0 mi WSW 8.1 mph - N/A   Clear
7:35 PM 51.8 °F - 32.0 °F 47% 29.97 in 10.0 mi SSW 3.5 mph - N/A   Clear
7:55 PM 50.0 °F - 28.4 °F 43% 29.98 in 10.0 mi Calm Calm - N/A   Clear
8:15 PM 48.2 °F - 30.2 °F 50% 29.98 in 10.0 mi West 8.1 mph - N/A   Clear
8:35 PM 46.4 °F - 32.0 °F 57% 29.99 in 10.0 mi Calm Calm - N/A   Clear
8:55 PM 42.8 °F 38.0 °F 32.0 °F 66% 30.00 in 10.0 mi SE 8.1 mph - N/A   Clear
9:15 PM 39.2 °F - 32.0 °F 75% 30.01 in 10.0 mi Calm Calm - N/A   Clear
9:35 PM 41.0 °F 37.1 °F 32.0 °F 70% 30.01 in 10.0 mi SSE 5.8 mph - N/A   Clear
9:55 PM 39.2 °F - 30.2 °F 70% 30.02 in 10.0 mi Calm Calm - N/A   Clear
10:15 PM 39.2 °F - 32.0 °F 75% 30.02 in 10.0 mi Calm Calm - N/A   Clear
10:35 PM 35.6 °F - 28.4 °F 75% 30.02 in 10.0 mi Calm Calm - N/A   Clear
10:55 PM 35.6 °F 30.7 °F 24.8 °F 65% 30.02 in 10.0 mi SSE 5.8 mph - N/A   Clear
11:15 PM 35.6 °F - 28.4 °F 75% 30.02 in 10.0 mi Calm Calm - N/A   Clear
11:35 PM 35.6 °F - 28.4 °F 75% 30.02 in 10.0 mi Calm Calm - N/A   Clear
11:55 PM 35.6 °F 32.8 °F 26.6 °F 70% 30.02 in 10.0 mi South 3.5 mph - N/A   Clear